Tracking 28052 objects as of 21-Sep-2023
HD Live streaming from Space Station
objects crossing your sky now

IRIDIUM 138

Track IRIDIUM 138 now!
10-day predictions
IRIDIUM 138 is classified as:


NORAD ID: 43071
Int'l Code: 2017-083B
Perigee: 783.2 km
Apogee: 786.4 km
Inclination: 86.4 °
Period: 100.4 minutes
Semi major axis: 7155 km
RCS: Unknown
Launch date: December 23, 2017
Source: United States (US)
Launch site: AIR FORCE WESTERN TEST RANGE (AFWTR)
Your satellite tracking list
Your tracking list is empty




NASA's NSSDC Master Catalog

Two Line Element Set (TLE):
1 43071U 17083B   23263.97545110  .00000510  00000-0  17488-3 0  9999
2 43071  86.4007  19.7766 0002212  90.4074 269.7375 14.34221017300770
Source of the keplerian elements: AFSPC